CAPE
84 20 8 2 0 3 18 25 37 24 2 3 11 18 24 30 95 131 30 127 36 75 63 102 128 14 59 94 48 99 196 113 278 91 21 54 26 57 55 110 9 47 42 30 25 31 16 0 0 31 142 198 32 15
55 9 2 4 0 11 28 18 19 4 0 1 6 31 9 84 78 58 25 62 91 162 99 188 138 129 87 225 161 350 121 150 177 5 30 150 117 210 64 102 54 77 93 157 33 97 111 28 10 5 165 84 31 15
11 4 7 8 15 3 16 5 0 0 0 21 14 24 2 54 34 24 28 11 13 7 52 35 30 3 51 228 394 315 243 126 125 156 252 174 93 91 179 159 135 97 118 111 131 10 55 62 151 81 24 0 0 0
2 8 22 14 8 13 0 0 0 4 15 32 24 18 18 29 27 39 46 54 66 19 58 2 0 0 5 54 111 222 103 150 215 298 238 206 126 27 51 66 0 49 107 82 144 79 179 129 126 198 27 0 0 0
8 6 22 12 3 2 0 0 3 10 12 13 23 32 30 19 45 99 110 129 110 21 142 69 0 0 0 5 11 39 84 138 142 139 105 86 40 161 224 112 2 43 60 156 157 196 104 198 130 3 87 0 0 0
9 7 1 0 0 0 0 0 1 28 21 35 18 42 40 5 52 51 24 21 0 0 30 21 41 12 5 10 16 62 84 132 147 146 64 50 263 311 118 59 22 92 184 179 269 185 16 3 21 52 34 0 0 1
8 5 1 0 0 0 0 0 0 6 4 17 5 38 64 23 203 128 58 26 0 0 36 0 7 64 43 0 37 33 64 131 186 181 66 73 223 140 133 46 0 8 25 4 0 0 0 0 0 0 0 0 0 0
56 27 6 2 0 1 0 0 5 7 0 3 0 14 52 8 7 123 14 0 5 15 0 11 32 21 7 47 61 86 92 117 179 171 157 126 205 134 13 0 52 174 54 9 0 0 0 2 0 0 0 0 1 0
27 33 25 11 12 3 0 0 14 0 0 13 18 22 14 46 23 8 0 22 80 77 25 6 39 50 5 34 19 28 81 86 96 93 92 123 130 33 1 5 76 12 10 0 3 0 1 0 0 0 0 0 0 0
1 33 28 28 21 11 5 12 13 2 7 56 35 24 49 30 7 9 75 77 50 63 38 21 32 105 19 27 2 44 44 66 16 2 95 26 23 0 0 34 106 13 1 2 2 1 0 0 0 0 0 1 0 0
13 16 12 12 22 29 25 9 0 0 60 74 78 69 125 23 54 42 17 0 7 10 9 3 6 19 10 106 36 89 95 121 34 112 43 16 5 80 170 22 1 0 0 0 0 0 1 0 0 0 1 1 0 0
17 22 21 10 24 11 5 0 4 47 69 67 29 43 24 5 8 2 4 3 7 3 9 13 16 50 7 11 82 123 125 172 105 12 42 124 150 19 5 0 0 1 0 0 0 0 0 0 1 3 1 0 0 0
20 17 10 4 5 5 9 1 0 10 41 2 12 18 5 8 26 11 13 18 48 58 45 49 36 8 7 8 20 105 8 52 163 112 21 34 3 1 0 1 1 2 0 0 0 0 0 0 0 0 0 0 0 0
27 17 6 9 14 6 1 2 15 49 52 26 49 96 39 10 10 45 67 192 22 127 233 119 40 91 108 33 125 35 24 23 14 6 19 12 2 2 1 1 4 0 0 0 0 0 0 0 0 0 0 0 0 0
21 13 12 12 15 3 7 26 18 44 19 86 14 43 14 10 5 7 13 11 6 106 273 175 122 81 33 23 57 4 0 8 1 19 15 6 1 0 0 1 0 0 0 0 0 2 2 2 1 4 4 2 0 0
15 11 3 21 25 11 14 20 21 24 28 19 5 18 35 21 2 24 47 13 9 173 156 119 19 51 9 4 0 1 0 0 21 15 20 13 1 0 1 1 0 0 0 0 0 0 2 1 2 4 8 7 3 2
2 0 0 0 0 0 9 15 20 27 9 5 32 15 12 31 40 27 4 17 17 85 77 12 1 0 4 0 0 0 16 8 24 19 11 7 1 0 0 0 0 0 0 0 0 0 1 1 0 2 4 5 5 5
17 3 0 0 0 0 3 4 19 11 2 9 31 35 15 19 16 13 5 50 68 49 36 25 25 0 5 0 8 7 7 27 26 8 1 2 3 0 0 1 0 0 0 0 0 0 0 0 0 1 1 2 5 7
0 0 0 0 0 10 15 6 15 9 2 10 6 8 15 39 17 7 10 79 34 22 39 21 6 2 29 8 17 10 10 14 8 7 4 0 3 2 0 0 1 1 0 0 2 2 2 1 2 0 1 2 7 5
0 0 0 0 0 20 1 1 4 12 8 22 10 18 8 15 7 3 37 53 35 24 9 5 42 12 8 8 11 29 29 28 6 11 5 7 5 2 4 4 3 1 5 5 5 0 0 0 2 0 0 4 6 6
0 0 0 1 14 5 0 1 7 6 6 12 11 10 31 6 24 34 35 0 18 24 24 12 3 10 6 4 8 20 14 14 15 22 16 3 7 7 8 12 4 1 2 5 5 1 0 3 1 0 6 14 15 4
0 0 0 0 0 0 0 0 12 10 10 8 3 15 19 31 42 28 10 18 21 11 4 4 5 3 2 1 1 9 10 0 0 0 0 0 3 2 2 2 3 9 9 7 1 6 2 1 0 0 4 15 13 10
0 0 0 0 4 0 1 0 7 3 6 4 6 9 14 6 16 3 6 11 5 0 2 1 2 6 2 0 4 3 4 5 5 4 5 11 11 12 7 0 4 8 7 0 1 1 6 0 2 10 17 14 16 17
0 0 0 0 0 4 1 4 7 4 7 6 9 0 4 10 9 10 7 8 1 0 0 3 0 4 1 1 3 4 6 5 4 8 9 0 0 0 0 0 0 1 1 0 1 6 3 5 3 9 16 13 16 14
0 0 2 0 0 2 6 5 1 9 8 3 3 2 9 2 11 7 2 13 6 8 2 3 3 3 7 14 12 7 6 2 1 3 16 4 4 1 0 0 0 1 0 8 8 16 8 10 10 13 10 14 14 4
0 0 0 1 4 3 7 9 10 9 14 11 15 13 6 14 6 3 4 20 13 12 6 7 17 15 17 18 23 4 3 2 2 15 3 2 1 8 8 5 2 3 3 10 10 6 3 4 6 8 9 13 6 9
0 0 1 0 5 5 7 10 13 16 14 10 21 18 11 3 3 6 0 7 18 48 26 24 35 31 24 22 22 16 10 2 3 4 6 10 3 5 11 11 2 7 0 7 12 10 6 3 5 10 11 17 11 14
0 0 1 3 4 7 9 12 13 11 13 13 5 13 7 7 14 3 4 1 10 6 16 30 18 8 14 23 28 12 4 0 0 0 0 0 0 1 0 1 0 0 1 5 6 11 12 9 11 12 14 13 14 19
10 6 3 0 4 10 10 10 8 11 0 2 10 16 16 5 3 3 2 0 1 3 4 5 16 7 5 6 2 6 7 7 6 7 5 14 6 4 0 0 2 5 9 9 0 6 11 12 15 17 14 14 16 23
10 2 9 6 0 0 22 31 32 44 5 13 8 2 1 18 85 13 8 1 1 1 6 10 22 11 17 13 11 8 4 5 14 29 20 6 26 3 3 4 6 5 4 7 5 7 2 14 6 19 18 17 18 15
0 1 3 10 16 38 17 8 10 5 11 10 18 21 17 42 38 17 3 4 1 2 15 16 12 14 22 13 21 8 6 3 0 0 3 4 4 6 6 5 4 4 8 7 6 2 7 9 14 15 15 10 9 13
12 7 17 7 15 7 4 6 13 14 15 17 16 22 32 29 17 37 2 1 4 8 8 17 22 21 10 29 15 10 3 1 3 2 9 2 2 4 6 1 4 8 9 6 4 8 5 4 10 9 7 5 7 7
3 8 7 10 14 9 24 12 13 7 9 10 12 27 17 29 20 24 2 8 6 6 4 2 12 10 2 0 2 1 0 0 0 0 4 3 1 3 10 6 8 12 8 6 8 9 4 5 6 7 7 8 7 7
CIN
-0 -0 -0 -0 -0 -0 -0 -0 -0 -0 -0 -0 -0 -0 -0 -17 -2 -3 -2 -0 -0 -0 -2 -8 -0 -17 -30 -2 -2 -3 -0 -0 -0 -1 -5 -2 -2 -1 -0 -10 -7 -3 -2 -2 -0 -0 -1 -0 -0 -2 -31 -22 -29 -43
-0 -0 -0 -0 -0 -0 -0 -0 -0 -0 -0 -0 -0 -5 -1 -0 -0 -0 -4 -2 -0 -1 -1 -8 -3 -7 -34 -13 -2 -0 -0 -0 -0 -23 -5 -0 -1 -0 -3 -0 -2 -3 -10 -2 -6 -0 -38 -25 -20 -47 -21 -34 -36 -46
-0 -0 -0 -0 -0 -0 -0 -0 -0 -0 -0 -0 -0 -4 -0 -0 -0 -0 -0 -0 -0 -11 -0 -0 -8 -2 -29 -17 -1 -0 -1 -0 -1 -0 -0 -0 -0 -0 -0 -1 -0 -4 -1 -8 -7 -5 -5 -13 -4 -4 -47 -0 -0 -29
-0 -0 -0 -0 -0 -0 -0 -0 -0 -0 -0 -0 -0 -0 -0 -0 -0 -0 -0 -3 -2 -0 -1 -0 -0 -0 -62 -44 -14 -7 -2 -0 -0 -0 -0 -0 -0 -2 -0 -30 -0 -4 -4 -3 -8 -34 -9 -0 -2 -1 -11 -0 -0 -0
-0 -0 -0 -4 -0 -0 -0 -0 -65 -12 -2 -0 -0 -0 -0 -7 -9 -2 -3 -1 -2 -3 -0 -2 -0 -0 -0 -95 -77 -53 -14 -0 -0 -1 -9 -9 -0 -0 -0 -1 -76 -34 -3 -1 -1 -5 -0 -6 -35 -8 -1 -0 -0 -0
-0 -0 -0 -0 -0 -0 -0 -0 -45 -0 -1 -0 -0 -0 -7 -36 -20 -14 -30 -30 -0 -2 -28 -29 -40 -93 -136 -117 -108 -46 -30 -10 -4 -9 -26 -24 -0 -1 -0 -1 -8 -0 -3 -12 -1 -15 -52 -8 -20 -2 -1 -0 -0 -1
-0 -0 -0 -0 -0 -0 -0 -0 -0 -0 -2 -0 -6 -2 -7 -23 -1 -1 -0 -18 -0 -0 -25 -0 -43 -17 -31 -0 -0 -2 -19 -2 -0 -0 -4 -9 -0 -1 -0 -19 -0 -25 -18 -44 -0 -0 -0 -0 -0 -0 -0 -0 -1 -0
-0 -0 -0 -0 -0 -0 -0 -0 -0 -3 -0 -2 -0 -1 -5 -16 -19 -1 -9 -0 -4 -1 -0 -0 -0 -0 -2 -0 -0 -2 -4 -0 -0 -0 -0 -0 -0 -0 -11 -0 -38 -4 -9 -7 -0 -0 -0 -0 -0 -0 -0 -0 -0 -0
-0 -0 -0 -0 -0 -0 -0 -0 -0 -0 -0 -1 -0 -5 -1 -3 -0 -1 -0 -20 -14 -0 -0 -2 -0 -0 -0 -0 -1 -0 -0 -1 -0 -0 -0 -0 -0 -20 -25 -34 -11 -58 -14 -0 -0 -0 -0 -0 -0 -0 -0 -0 -0 -0
-0 -0 -0 -0 -0 -0 -0 -0 -0 -4 -5 -0 -0 -0 -0 -0 -10 -19 -0 -0 -0 -0 -0 -0 -0 -0 -0 -0 -0 -0 -0 -0 -1 -0 -0 -21 -38 -0 -0 -0 -8 -0 -0 -0 -0 -0 -0 -0 -0 -0 -0 -0 -0 -0
-0 -0 -0 -0 -0 -0 -0 -0 -2 -5 -2 -0 -0 -0 -0 -32 -0 -0 -7 -0 -0 -0 -0 -0 -0 -0 -0 -0 -0 -0 -0 -0 -0 -2 -0 -4 -22 -20 -2 -0 -0 -0 -0 -0 -0 -0 -0 -0 -0 -0 -0 -1 -0 -0
-0 -0 -0 -0 -0 -0 -0 -0 -0 -0 -0 -4 -9 -2 -0 -0 -4 -0 -0 -0 -0 -0 -9 -13 -14 -5 -0 -3 -0 -0 -0 -0 -2 -14 -4 -0 -0 -16 -0 -1 -0 -0 -0 -0 -0 -0 -0 -0 -0 -1 -3 -0 -0 -0
-0 -0 -0 -0 -0 -0 -0 -0 -0 -6 -9 -2 -7 -1 -0 -1 -0 -0 -0 -0 -0 -0 -0 -1 -1 -0 -0 -0 -0 -0 -10 -0 -1 -0 -4 -3 -0 -1 -0 -0 -0 -0 -0 -0 -0 -0 -0 -1 -2 -0 -0 -0 -0 -0
-0 -0 -0 -0 -0 -0 -0 -1 -0 -2 -0 -0 -0 -0 -0 -0 -0 -0 -0 -1 -4 -2 -0 -0 -0 -1 -4 -4 -0 -0 -1 -1 -0 -0 -2 -0 -0 -3 -4 -2 -0 -0 -0 -0 -0 -0 -0 -0 -0 -0 -0 -0 -0 -0
-0 -0 -0 -0 -0 -1 -0 -0 -5 -0 -0 -0 -0 -0 -0 -0 -0 -0 -0 -0 -0 -5 -0 -0 -0 -1 -4 -16 -3 -8 -0 -2 -1 -1 -0 -0 -2 -0 -0 -0 -0 -0 -0 -0 -0 -0 -0 -0 -0 -0 -0 -0 -0 -0
-1 -1 -1 -2 -0 -0 -3 -0 -0 -0 -0 -0 -0 -0 -0 -0 -0 -1 -0 -0 -0 -0 -1 -3 -1 -2 -11 -13 -0 -1 -0 -0 -8 -0 -0 -0 -0 -0 -0 -0 -0 -0 -0 -0 -0 -0 -1 -1 -1 -0 -0 -0 -0 -0
-3 -0 -0 -5 -0 -0 -5 -0 -0 -0 -0 -0 -0 -0 -0 -0 -0 -1 -0 -0 -0 -0 -4 -0 -4 -0 -16 -0 -0 -0 -15 -1 -0 -0 -1 -0 -0 -0 -0 -0 -0 -0 -0 -0 -0 -0 -0 -1 -2 -0 -0 -0 -0 -0
-0 -4 -0 -0 -0 -1 -0 -0 -0 -0 -0 -0 -0 -0 -0 -2 -1 -0 -1 -3 -0 -1 -0 -2 -8 -4 -9 -0 -15 -0 -0 -0 -0 -1 -0 -0 -0 -0 -0 -0 -0 -0 -0 -0 -0 -0 -0 -0 -0 -0 -0 -0 -0 -0
-0 -0 -0 -0 -0 -0 -0 -0 -0 -0 -0 -0 -0 -0 -0 -0 -0 -3 -3 -0 -0 -0 -6 -6 -9 -6 -8 -15 -0 -0 -0 -0 -0 -0 -0 -0 -0 -0 -0 -0 -0 -0 -0 -0 -0 -0 -0 -0 -0 -0 -0 -0 -0 -0
-0 -0 -0 -0 -0 -0 -0 -2 -0 -0 -0 -0 -0 -0 -2 -0 -1 -0 -0 -0 -0 -5 -5 -1 -0 -0 -4 -0 -0 -0 -0 -0 -2 -0 -0 -0 -0 -0 -0 -0 -0 -0 -0 -0 -0 -0 -0 -1 -0 -0 -0 -0 -0 -0
-0 -0 -0 -3 -5 -2 -0 -0 -0 -0 -0 -0 -3 -0 -0 -0 -0 -0 -0 -8 -1 -1 -3 -26 -0 -0 -2 -4 -1 -0 -4 -3 -2 -0 -0 -0 -0 -0 -0 -0 -0 -0 -0 -0 -0 -0 -0 -0 -2 -3 -1 -0 -0 -0
-0 -0 -0 -0 -0 -0 -0 -0 -0 -0 -0 -0 -1 -0 -0 -0 -0 -0 -0 -0 -0 -3 -0 -0 -1 -0 -0 -0 -0 -0 -2 -9 -0 -0 -0 -0 -0 -0 -0 -0 -0 -0 -0 -0 -1 -0 -0 -0 -0 -1 -0 -0 -0 -0
-0 -0 -0 -0 -1 -0 -0 -0 -0 -0 -0 -0 -0 -0 -0 -0 -0 -2 -0 -0 -2 -0 -0 -0 -0 -1 -4 -0 -0 -2 -2 -1 -1 -2 -6 -2 -2 -7 -0 -0 -2 -0 -0 -0 -2 -1 -0 -0 -0 -0 -0 -0 -0 -0
-0 -0 -0 -0 -0 -0 -0 -0 -0 -0 -0 -0 -0 -0 -0 -0 -0 -0 -0 -0 -0 -0 -1 -1 -0 -0 -0 -0 -0 -0 -1 -1 -4 -6 -4 -2 -0 -0 -0 -0 -4 -9 -3 -0 -1 -0 -0 -0 -0 -0 -0 -0 -0 -0
-0 -0 -0 -0 -0 -0 -0 -0 -2 -0 -0 -0 -0 -0 -0 -0 -0 -0 -0 -1 -0 -0 -0 -2 -2 -1 -0 -1 -0 -5 -1 -3 -1 -1 -0 -1 -2 -3 -3 -0 -0 -5 -0 -0 -0 -0 -0 -0 -0 -0 -0 -0 -0 -0
-0 -0 -0 -0 -0 -0 -0 -0 -0 -0 -0 -0 -0 -0 -0 -0 -0 -0 -0 -0 -0 -0 -0 -0 -0 -0 -0 -0 -0 -0 -2 -3 -3 -0 -2 -4 -6 -2 -0 -0 -0 -0 -5 -1 -0 -0 -0 -0 -0 -0 -0 -0 -0 -0
-0 -0 -0 -0 -0 -0 -0 -0 -0 -0 -0 -0 -0 -0 -0 -0 -0 -0 -0 -0 -0 -0 -0 -0 -0 -0 -0 -0 -0 -2 -2 -11 -12 -0 -1 -3 -15 -11 -3 -1 -1 -0 -0 -1 -1 -0 -0 -0 -0 -0 -0 -0 -0 -0
-0 -0 -0 -0 -0 -0 -0 -0 -0 -0 -0 -0 -0 -0 -0 -0 -0 -0 -1 -8 -2 -1 -0 -0 -4 -14 -1 -0 -0 -0 -0 -0 -0 -0 -0 -0 -4 -9 -8 -3 -0 -0 -6 -1 -0 -0 -0 -0 -0 -0 -0 -0 -0 -0
-0 -0 -0 -0 -0 -0 -0 -0 -0 -0 -0 -0 -0 -0 -0 -0 -0 -0 -0 -0 -1 -1 -1 -0 -0 -3 -7 -3 -9 -0 -0 -0 -0 -0 -0 -0 -0 -0 -2 -0 -0 -0 -0 -0 -3 -0 -0 -0 -0 -0 -0 -0 -0 -0
-0 -0 -0 -0 -0 -0 -0 -0 -0 -0 -0 -0 -2 -0 -0 -0 -1 -2 -0 -0 -0 -0 -0 -0 -0 -1 -0 -0 -0 -0 -0 -0 -0 -0 -0 -0 -0 -0 -0 -0 -0 -0 -0 -0 -0 -0 -1 -0 -3 -0 -0 -0 -0 -0
-0 -0 -0 -0 -0 -0 -0 -2 -0 -1 -0 -0 -0 -0 -0 -0 -0 -0 -0 -0 -0 -0 -0 -0 -0 -0 -0 -0 -0 -0 -0 -0 -0 -0 -0 -0 -0 -0 -0 -0 -0 -0 -0 -0 -0 -0 -0 -0 -0 -0 -0 -0 -0 -0
-0 -0 -0 -0 -0 -0 -0 -0 -0 -0 -0 -0 -0 -0 -0 -0 -0 -0 -1 -2 -0 -0 -0 -0 -0 -0 -0 -0 -1 -2 -8 -0 -0 -0 -0 -0 -0 -0 -0 -0 -0 -0 -0 -0 -0 -0 -0 -0 -0 -0 -0 -0 -0 -0
-0 -0 -0 -0 -0 -0 -0 -0 -0 -0 -0 -0 -0 -0 -0 -0 -0 -10 -0 -0 -0 -0 -1 -2 -1 -3 -12 -0 -0 -0 -0 -0 -0 -0 -4 -1 -0 -0 -0 -0 -0 -0 -0 -0 -0 -0 -0 -0 -0 -0 -0 -0 -0 -0
Wind_Speed
16 11 12 13 12 13 12 10 10 11 15 19 24 26 22 23 25 16 10 13 14 5 6 10 15 12 9 11 8 12 8 6 6 7 5 5 6 5 8 9 10 6 4 7 9 11 16 6 10 14 5 4 4 2
12 14 13 9 8 9 8 7 8 11 15 22 27 19 17 19 22 16 4 6 5 4 4 6 5 7 5 2 6 10 5 13 7 5 6 4 6 4 10 11 12 14 10 5 6 4 2 5 5 7 4 3 2 1
14 13 10 10 9 7 6 6 7 9 18 22 25 13 13 17 23 14 5 6 0 3 3 4 9 7 3 4 2 5 4 4 5 2 1 2 5 6 8 10 12 16 15 13 12 13 13 10 11 5 4 3 0 2
12 11 11 10 9 8 6 5 6 13 15 14 3 14 18 22 24 14 4 5 3 3 4 5 4 5 6 3 1 2 6 5 6 3 2 2 3 1 3 3 4 8 9 6 8 10 18 12 6 7 9 4 3 6
13 12 11 10 9 8 5 5 8 11 11 3 5 11 14 6 4 6 3 1 5 3 2 6 4 5 6 6 4 2 2 4 4 3 3 5 6 6 5 4 7 4 11 9 10 5 6 7 5 20 5 7 7 11
14 13 12 10 9 8 6 5 8 8 5 2 3 15 6 3 1 5 4 3 5 6 3 3 3 3 9 9 8 8 7 5 3 1 4 5 10 4 4 6 10 5 9 12 4 5 3 1 9 12 7 7 8 12
15 14 13 11 10 9 7 7 7 4 5 3 3 3 5 1 4 3 3 3 2 2 2 2 1 3 5 10 8 6 7 3 4 2 4 6 4 2 4 9 10 16 6 4 4 2 3 3 2 2 4 7 8 11
16 16 15 13 12 10 7 6 5 4 3 2 8 3 5 3 1 3 6 10 1 3 1 2 3 1 4 5 5 3 2 4 3 3 4 6 5 3 6 6 8 13 7 5 5 4 6 1 4 4 5 8 10 10
18 17 15 14 13 11 9 7 5 2 3 4 10 8 4 2 0 3 5 6 4 2 3 4 5 4 1 1 3 3 2 3 2 5 7 6 6 7 7 9 5 6 6 4 5 6 4 5 6 6 7 8 10 10
26 19 18 16 14 12 11 8 7 2 6 17 9 4 2 4 14 12 6 5 3 4 3 5 2 5 5 3 4 5 4 5 5 8 5 5 7 9 14 8 7 7 5 6 6 5 5 6 6 7 6 7 9 10
31 27 24 20 16 14 13 9 6 1 17 6 3 2 5 13 4 2 1 2 4 4 5 4 8 6 4 4 6 6 5 6 5 6 8 5 5 10 9 7 9 8 7 5 3 2 3 7 7 6 6 5 9 10
20 27 27 23 18 16 14 10 8 7 2 4 5 2 3 2 1 2 4 3 5 3 2 4 3 3 5 4 5 6 5 5 4 6 6 4 4 9 8 11 9 9 7 5 3 6 5 8 7 6 7 7 7 8
21 26 27 24 20 18 15 13 13 11 10 4 1 4 3 4 6 5 6 4 4 4 5 4 4 4 5 9 2 3 4 3 6 2 2 4 8 7 8 8 9 8 7 7 7 7 9 10 9 9 10 10 12 11
22 21 21 19 16 15 14 11 14 8 2 3 5 6 5 4 4 3 4 3 1 4 4 6 2 2 3 3 1 2 2 2 3 3 1 7 8 7 5 7 8 8 7 9 10 10 10 11 10 10 10 10 11 10
22 21 18 14 13 14 13 8 12 0 4 2 3 2 2 2 1 2 2 3 3 4 2 3 2 2 2 3 1 3 2 4 4 1 3 6 7 7 8 9 9 8 8 8 8 7 8 9 9 9 9 9 9 10
9 8 6 7 13 16 12 9 4 3 4 1 2 4 1 3 1 0 1 2 3 3 1 2 2 2 1 3 3 3 3 2 3 3 4 6 7 6 8 7 8 8 8 8 8 9 8 7 7 8 8 7 8 8
5 3 5 3 5 8 14 3 4 4 2 2 1 1 3 3 2 1 1 3 2 2 2 1 2 2 1 2 2 0 2 3 4 4 2 6 8 8 8 8 9 9 9 9 9 9 7 7 8 8 9 8 8 8
4 3 2 2 8 7 6 7 3 3 1 2 2 2 2 1 2 1 3 4 3 2 2 2 1 1 1 1 2 3 3 3 4 5 2 5 7 7 7 9 9 9 9 9 8 8 8 9 8 6 9 8 8 8
4 4 7 5 4 4 3 3 3 2 1 0 2 2 1 1 3 2 3 5 2 1 1 1 0 1 2 3 3 4 4 3 4 4 3 5 7 7 8 8 8 7 8 9 9 7 6 7 5 6 7 7 6 7
5 4 6 5 3 3 3 1 2 2 2 0 1 1 1 1 1 1 4 3 1 1 1 1 2 3 3 3 3 3 4 5 6 6 5 4 4 6 7 7 6 8 6 6 5 6 6 3 4 6 7 7 7 7
7 5 6 4 2 2 1 2 2 1 1 1 1 2 1 1 2 2 2 1 2 2 2 3 3 3 4 2 1 2 3 4 3 2 6 5 4 5 5 4 6 4 4 4 5 5 5 4 4 4 5 5 5 7
4 7 3 1 2 2 1 1 3 2 2 0 2 2 2 1 2 2 1 3 2 3 2 2 4 5 4 3 2 1 4 7 5 4 6 8 5 5 5 5 4 4 4 4 4 5 4 3 5 5 5 5 6 7
7 3 1 1 0 1 2 2 3 2 2 2 2 3 2 2 1 1 3 3 2 2 2 3 4 3 6 5 4 4 4 4 3 3 3 2 3 3 5 5 4 5 4 4 3 5 4 6 6 5 5 6 6 7
4 2 0 1 2 2 1 2 2 3 1 3 3 2 1 2 1 3 5 4 4 5 4 4 5 5 4 5 4 4 3 3 4 3 2 4 3 3 3 2 3 3 2 4 5 4 5 5 6 6 6 7 7 7
3 2 2 3 2 3 3 2 2 3 3 4 1 3 2 2 2 4 5 2 6 5 5 4 3 4 4 3 3 3 3 3 4 5 4 4 4 4 4 4 3 3 3 4 5 6 6 5 5 6 7 7 9 9
4 3 3 3 2 4 4 3 4 5 2 3 3 1 2 2 4 5 1 3 3 4 5 5 5 5 5 6 6 6 5 3 2 4 3 4 5 4 4 5 5 4 4 3 4 5 6 6 5 7 7 8 9 9
4 4 3 1 3 1 1 2 1 1 3 4 3 4 3 4 5 1 2 3 2 1 6 6 5 3 2 3 3 3 5 4 2 3 3 2 4 3 4 4 4 3 6 6 5 6 7 7 6 7 7 6 8 7
3 2 4 3 2 2 2 2 4 4 3 2 1 5 4 3 2 2 2 1 1 2 1 1 1 2 2 1 4 6 6 5 4 4 4 5 4 4 5 5 4 5 6 5 5 5 6 6 6 7 7 7 7 7
2 1 2 2 3 4 4 4 3 1 2 1 2 3 2 1 2 0 1 3 3 3 3 4 3 2 4 2 3 4 4 5 8 9 10 6 5 4 3 4 4 4 4 5 6 5 7 6 6 6 7 6 6 6
2 0 3 3 3 4 2 1 2 2 2 3 2 6 7 5 3 4 3 5 6 6 5 4 4 5 5 6 5 5 3 4 2 3 5 5 3 7 7 5 5 5 5 6 6 7 8 7 7 6 7 6 6 6
1 2 3 4 3 0 3 2 1 3 4 4 5 7 9 5 2 6 7 7 7 6 5 5 6 6 6 6 6 6 5 4 3 3 4 4 4 5 6 5 5 5 6 7 7 7 7 6 6 8 9 8 8 7
3 4 3 3 3 3 1 3 2 4 5 6 7 5 5 4 6 4 4 6 6 8 9 7 7 6 6 4 4 3 4 7 7 5 7 5 5 4 5 5 5 5 7 8 7 7 9 8 7 7 7 9 9 9
2 2 3 3 3 3 3 2 3 4 5 6 6 6 6 5 6 1 1 2 4 5 6 6 4 5 8 9 7 5 6 5 7 8 8 7 7 6 5 4 5 5 8 7 7 7 10 10 8 9 9 9 10 9
Wind_Direction
242 197 204 236 249 253 252 249 248 243 260 282 289 291 266 222 221 209 231 208 214 226 207 197 208 235 207 193 195 170 137 167 173 184 180 179 230 229 231 238 252 200 222 222 231 239 254 354 323 264 335 44 44 42
177 191 217 222 227 220 230 247 267 247 281 300 302 276 230 200 179 197 219 176 181 247 190 189 133 80 325 4 129 162 195 169 175 166 209 204 228 254 255 259 255 251 232 218 206 249 205 262 241 260 264 306 120 21
190 201 201 206 211 219 233 263 285 296 294 309 305 137 151 164 169 210 162 116 257 136 163 158 152 159 123 77 83 166 234 163 134 106 68 231 259 292 255 254 268 268 268 250 253 258 265 264 221 204 193 254 311 163
191 191 193 202 213 220 238 273 302 292 312 321 53 135 166 183 182 214 163 195 200 182 119 159 155 185 165 194 225 173 99 91 110 124 152 217 253 329 293 289 269 264 293 279 302 293 285 261 271 246 186 171 179 150
193 197 203 209 217 226 243 279 286 295 319 37 59 163 191 200 66 166 158 262 26 329 114 113 128 196 181 191 201 224 191 185 199 181 191 230 247 253 261 250 258 266 256 268 263 278 288 324 350 315 192 159 172 138
201 203 209 218 226 237 246 262 285 303 337 54 347 189 146 47 328 59 32 6 19 12 49 138 46 169 206 205 199 206 217 225 205 230 248 244 248 208 255 255 263 269 354 358 4 36 101 153 232 229 177 174 168 146
205 206 213 220 231 239 253 285 308 329 25 4 201 115 161 350 341 28 43 15 77 12 44 85 216 13 306 203 213 212 227 202 204 215 229 259 240 193 248 252 273 281 254 263 309 151 248 230 214 214 156 162 138 129
210 210 216 219 223 227 238 263 286 109 343 336 173 148 167 205 227 100 28 29 13 86 242 264 114 217 292 191 198 196 175 200 204 216 231 229 216 209 250 268 275 300 202 224 226 211 294 223 152 136 141 135 143 131
220 215 211 211 214 212 221 230 166 131 290 288 153 134 138 253 314 94 136 70 51 343 208 224 212 163 238 164 107 132 154 170 202 237 235 218 212 216 226 257 206 171 204 197 178 229 165 175 154 143 153 163 147 140
223 208 200 201 200 206 208 201 161 172 279 142 153 182 202 116 128 154 182 176 176 207 201 230 214 165 188 142 170 138 182 225 200 217 209 223 251 252 252 237 191 178 166 153 169 191 177 170 160 159 170 176 148 146
205 199 198 197 195 193 177 178 159 225 143 175 180 69 83 170 209 201 204 262 185 217 206 229 218 147 186 194 175 204 178 195 226 172 195 210 226 197 197 169 116 131 135 104 72 103 148 158 154 156 155 122 124 140
170 182 183 182 180 177 171 157 182 194 133 78 98 194 168 219 6 248 216 205 233 261 202 219 170 183 152 184 210 182 225 201 245 141 174 221 105 130 117 109 124 119 112 103 114 129 132 126 133 135 122 117 117 109
117 141 161 171 175 180 178 181 209 148 128 73 331 157 203 166 224 222 195 207 227 174 207 147 170 175 182 206 176 119 177 223 153 214 221 70 122 112 116 148 139 106 102 92 79 68 80 78 73 87 90 95 98 98
103 125 142 151 156 163 172 186 182 200 43 239 201 189 249 165 236 258 1 17 328 290 171 157 123 227 190 70 210 135 37 265 233 209 101 128 146 127 135 135 125 95 77 89 84 85 82 91 90 94 104 111 114 117
92 103 115 133 151 161 171 182 211 295 237 273 286 256 233 13 324 336 321 312 306 290 180 166 186 129 94 113 107 122 171 215 229 58 76 120 114 111 99 101 111 113 113 118 119 109 112 108 108 109 110 118 118 127
88 113 86 156 172 193 211 225 214 251 264 213 288 272 325 270 171 342 332 285 261 270 199 254 162 79 109 123 165 207 213 226 79 78 105 124 114 109 105 128 131 131 130 129 127 129 118 112 123 124 121 121 131 140
332 85 347 23 162 177 193 229 207 242 238 284 150 216 295 307 30 41 332 299 266 265 248 165 109 58 118 213 182 352 12 55 115 100 59 126 130 140 145 139 136 136 135 134 134 134 126 120 121 134 138 132 139 143
178 134 359 276 209 194 184 217 261 259 266 335 298 81 283 305 310 292 264 282 255 251 305 61 152 160 210 248 102 104 118 76 78 80 72 119 118 141 144 138 140 142 138 139 137 136 136 144 151 153 142 147 137 139
28 10 334 312 245 253 214 213 255 241 267 257 227 170 218 258 254 264 275 275 292 4 150 211 142 232 85 65 99 110 131 157 152 124 87 95 124 134 140 141 142 138 146 147 148 155 162 180 158 139 144 155 153 154
223 226 310 261 225 226 210 243 258 254 216 151 87 239 295 266 265 283 272 305 327 293 230 234 40 51 40 93 46 135 162 124 133 148 138 125 125 134 144 152 154 154 152 166 169 143 147 145 144 153 155 178 158 161
216 8 315 235 205 297 311 246 238 19 199 199 173 243 230 208 238 255 274 293 260 246 161 68 101 69 46 36 42 111 129 157 156 174 156 146 161 143 148 139 142 146 156 164 153 144 156 175 163 141 155 163 157 155
22 317 287 346 291 236 272 275 306 155 192 118 201 241 174 237 245 226 281 237 253 86 65 152 131 160 165 169 181 188 132 96 100 96 79 125 154 164 161 154 162 167 171 163 155 161 163 151 144 139 159 169 159 155
288 222 268 280 197 229 260 254 217 247 189 233 196 229 182 211 232 204 248 221 113 110 190 183 179 118 118 123 125 126 146 172 158 139 129 103 110 130 145 159 168 157 158 158 147 152 157 140 140 153 171 158 156 155
134 353 339 246 260 202 252 266 253 205 286 231 205 239 178 192 266 249 256 227 116 134 180 185 169 144 149 156 157 162 166 150 114 114 117 133 131 138 129 122 112 126 125 148 146 141 139 154 153 179 169 168 172 162
255 193 226 200 233 183 210 219 294 217 224 221 329 284 146 180 242 244 244 143 155 164 168 177 186 193 180 161 147 115 152 154 163 152 167 182 152 142 139 134 123 136 129 148 155 163 157 153 170 185 174 186 173 168
236 164 219 203 191 212 194 210 202 219 195 192 244 30 5 253 247 244 246 82 135 160 163 183 188 194 202 199 173 167 177 180 176 145 170 152 148 160 169 168 161 170 163 171 158 160 160 161 178 191 186 192 170 171
244 199 199 213 297 225 291 291 295 200 201 220 188 168 203 234 236 144 74 37 45 102 171 186 219 212 192 154 117 115 147 129 101 146 149 122 118 151 163 174 181 163 159 167 163 170 169 169 186 190 187 183 170 183
256 251 207 193 229 229 252 260 194 223 227 155 159 204 228 239 349 65 81 81 28 342 85 81 107 93 91 133 133 122 103 108 94 84 71 64 55 78 93 98 80 128 129 153 158 157 161 164 177 183 183 173 164 174
219 111 255 209 221 211 226 217 239 194 82 174 262 259 243 7 74 280 206 207 204 201 191 182 185 62 91 88 130 148 144 164 175 186 202 198 170 175 136 126 144 144 127 140 142 144 154 154 163 172 167 157 158 158
132 176 262 171 220 233 203 345 26 32 274 292 300 280 272 265 211 193 198 209 211 218 218 218 174 173 191 194 179 167 169 191 210 210 201 214 170 137 147 154 159 154 151 149 144 132 129 137 132 141 146 144 156 152
240 219 246 250 255 175 61 54 272 255 245 260 264 267 276 302 271 213 213 219 218 212 200 193 183 187 197 194 186 175 181 178 164 121 124 113 121 138 145 153 152 153 158 148 148 162 161 158 164 160 159 156 163 163
186 231 268 258 263 94 353 243 263 259 256 251 245 235 246 244 250 236 186 194 204 210 207 200 199 190 188 170 139 123 108 145 166 164 160 167 167 150 143 140 149 161 159 153 158 167 166 169 162 162 167 169 169 176
242 218 247 282 256 229 186 233 261 275 260 256 265 250 248 255 254 230 103 226 217 211 205 206 183 159 164 160 155 148 134 136 144 149 154 141 146 154 140 146 160 164 160 157 166 166 171 177 173 176 176 177 172 179